Vorticity
9 9 9 9 2 4 8 3 -3 10 25 13 10 10 13 10 10 7 2 13 8 7 7 6 3 3 4 5 4 4 5 4 4 3 4 5 6 5 4 4 11 4 -1 9 11 10 5 6 5
9 10 10 8 1 12 13 18 20 -1 -7 14 14 6 -0 15 5 -2 7 9 21 3 4 10 4 3 4 5 4 4 4 4 4 3 3 4 5 5 5 5 3 4 7 4 6 -0 5 5 4
11 10 10 5 10 1 19 14 4 8 14 0 9 9 -6 15 14 2 9 8 6 8 7 6 7 8 7 5 5 4 4 4 5 4 4 4 6 4 4 5 6 6 4 8 -1 2 2 3 5
12 11 7 4 0 4 20 -2 -2 14 11 7 7 9 9 1 10 6 3 2 4 9 1 5 5 7 6 4 6 6 5 4 4 4 4 4 4 5 2 6 4 7 2 7 1 -3 4 3 6
12 15 4 6 10 5 -1 1 10 5 5 10 8 8 4 5 7 6 4 3 2 1 0 1 1 2 4 2 4 6 9 6 4 4 4 4 4 2 0 8 10 9 8 2 2 1 -3 7 7
9 8 6 9 11 6 10 11 11 -3 9 4 4 2 3 0 1 4 3 2 2 2 2 1 2 3 3 4 4 4 8 8 6 4 4 3 4 4 2 3 8 1 6 5 2 6 9 7 7
7 3 -3 0 8 11 9 9 5 7 6 5 8 6 1 10 13 14 12 10 10 9 8 6 4 3 3 2 0 1 2 6 7 5 4 3 4 3 2 4 5 4 3 1 6 6 7 7 7
8 7 20 7 10 0 9 10 8 7 -2 10 4 8 3 1 5 3 4 5 5 6 7 10 13 16 14 7 3 4 2 2 6 8 5 4 3 3 4 2 3 7 4 -1 5 6 6 7 7
11 5 8 7 5 0 10 7 9 6 6 9 9 4 5 8 9 9 9 8 8 7 7 7 6 6 9 9 12 13 7 4 4 3 10 7 5 4 3 2 2 4 5 2 2 6 6 6 7
7 -5 3 3 4 8 8 8 11 10 11 7 11 12 8 6 6 7 7 7 7 7 7 8 8 8 7 6 6 8 14 12 7 1 4 4 10 6 3 3 3 5 2 3 1 4 6 6 6
11 -2 10 10 10 9 7 8 6 10 12 6 4 5 6 7 6 8 10 13 14 13 14 13 13 11 7 7 8 8 6 6 14 11 4 -4 4 6 13 4 0 2 4 5 4 2 4 6 5
13 12 8 8 6 6 6 5 4 9 2 3 5 7 5 4 7 7 7 7 7 8 9 10 12 13 18 20 13 7 6 7 6 7 16 11 1 3 3 7 12 2 3 4 4 5 1 0 5
5 9 4 7 3 6 4 2 7 7 5 3 5 7 5 8 7 6 7 9 8 7 7 7 8 9 9 11 15 19 16 7 6 5 6 9 13 9 2 -9 3 9 2 5 4 6 4 -1 6
8 7 6 5 5 4 6 2 8 5 4 0 9 4 7 7 5 7 8 6 5 6 6 6 7 8 9 9 11 12 15 18 19 10 6 7 8 8 13 3 5 -2 -1 19 12 7 8 12 0
5 7 8 4 6 5 8 14 16 6 3 5 9 4 7 6 7 6 5 6 8 8 6 4 4 5 5 6 7 9 11 11 13 17 20 15 11 9 11 10 15 2 -2 -15 -12 0 -4 0 16
9 8 8 10 16 1 5 10 8 7 -3 4 12 5 7 7 5 6 9 9 7 6 5 5 3 4 6 6 4 4 5 6 8 9 11 12 15 18 14 14 12 11 18 14 -88 -5 -7 31 -1
11 -6 19 5 10 12 8 2 2 -2 8 3 15 8 6 4 5 7 7 5 4 3 3 4 5 5 4 7 8 6 5 3 3 4 4 4 7 10 14 15 17 15 11 14 14 -1 -3 5 24
13 19 4 -4 1 7 -0 10 8 4 3 3 16 6 7 3 7 7 6 4 3 4 5 4 5 3 4 5 6 1 7 10 4 5 5 5 4 3 6 9 14 16 16 20 14 10 -1 6 -40
-9 7 -1 3 3 4 13 9 6 6 5 31 13 5 4 2 5 4 4 2 2 3 4 4 3 3 6 6 10 8 12 11 9 8 0 10 4 1 3 4 6 12 15 18 19 20 5 12 29
10 8 8 9 6 9 6 8 18 14 23 10 12 3 2 4 6 2 2 2 1 1 3 3 5 5 6 6 6 7 7 12 8 5 -0 1 16 13 6 6 4 5 10 14 16 15 11 11 1
9 9 5 -1 3 7 12 27 19 20 4 8 8 4 5 5 5 4 5 2 2 3 5 6 6 3 10 7 18 19 16 10 11 1 9 11 17 15 12 9 5 3 4 8 15 16 19 -1 15
12 10 4 5 9 5 1 1 5 6 12 6 13 3 4 7 4 3 1 3 -1 6 8 3 7 4 7 12 15 17 19 17 14 14 20 18 8 7 16 12 9 3 3 5 11 10 42 19 -4
4 5 8 9 6 7 19 13 33 12 8 7 6 5 9 5 3 1 2 4 9 10 6 7 8 6 11 15 11 11 14 13 16 12 11 14 10 13 14 15 27 9 5 4 7 20 2 7 28
6 10 9 15 16 15 22 -2 33 6 8 10 6 10 2 5 2 2 8 12 10 7 7 9 10 9 15 10 14 16 13 11 7 8 7 11 15 18 27 26 17 18 7 2 7 12 16 18 31
13 15 15 9 9 11 14 1 -6 -6 28 11 11 -3 3 -3 -5 -4 10 11 7 6 8 8 10 7 13 9 16 17 10 8 9 9 10 12 8 11 14 15 7 12 18 7 6 10 13 10 10
16 -6 -13 8 10 19 5 19 13 9 12 6 -5 7 3 4 -15 10 14 11 8 6 9 9 9 10 14 26 20 14 11 7 10 13 10 9 12 12 12 15 9 25 10 7 4 8 15 16 29
26 6 6 -6 13 6 6 13 12 6 13 15 2 0 -12 -15 -2 17 10 9 7 7 9 11 10 12 25 28 15 11 11 12 8 8 9 10 5 14 11 21 15 27 7 6 6 9 12 30 1
-6 21 14 11 9 8 40 -5 -15 7 16 6 4 -3 -5 -5 17 13 8 7 5 7 9 12 11 18 21 18 16 10 8 6 1 6 11 15 7 15 14 19 14 22 9 2 13 14 13 5 27
-2 -2 -3 4 3 6 6 14 16 18 26 -20 10 -4 2 0 22 6 6 6 5 9 12 13 15 22 19 13 7 14 9 13 14 5 31 19 11 29 6 22 9 25 5 2 5 15 20 -3 17
10 10 15 -5 23 7 3 13 -9 18 -1 -6 2 -4 -9 30 10 5 5 5 7 10 14 20 24 11 15 14 17 8 6 19 16 27 13 11 26 12 25 6 7 27 5 0 2 22 16 18 15
Height
3117 3118 3119 3120 3125 3120 3119 3120 3119 3121 3121 3122 3124 3126 3128 3129 3130 3134 3131 3132 3134 3135 3136 3138 3140 3142 3143 3144 3145 3146 3146 3147 3148 3149 3150 3150 3151 3152 3153 3154 3155 3156 3157 3157 3156 3156 3156 3157 3157
3115 3116 3118 3118 3121 3119 3120 3118 3118 3117 3119 3121 3123 3125 3128 3128 3128 3129 3130 3131 3131 3133 3134 3136 3138 3140 3141 3143 3144 3145 3145 3146 3147 3148 3149 3150 3150 3152 3153 3153 3154 3155 3155 3156 3156 3156 3156 3157 3157
3114 3115 3117 3118 3118 3118 3119 3118 3115 3118 3119 3120 3122 3123 3125 3127 3126 3128 3129 3130 3131 3132 3133 3135 3137 3138 3140 3142 3143 3144 3145 3146 3147 3147 3148 3149 3150 3151 3152 3153 3154 3155 3155 3155 3155 3156 3156 3157 3157
3113 3115 3117 3116 3117 3118 3117 3115 3116 3117 3118 3120 3121 3123 3125 3125 3127 3128 3129 3130 3131 3132 3132 3133 3136 3137 3138 3140 3141 3142 3143 3144 3146 3147 3147 3148 3149 3150 3151 3152 3152 3154 3154 3155 3155 3156 3156 3156 3156
3112 3113 3114 3115 3116 3114 3114 3113 3115 3117 3117 3119 3120 3120 3122 3124 3125 3127 3128 3129 3130 3131 3132 3133 3134 3135 3136 3137 3138 3140 3141 3143 3144 3145 3146 3147 3148 3148 3149 3150 3151 3152 3153 3155 3155 3155 3155 3155 3155
3111 3113 3114 3114 3113 3112 3113 3114 3115 3115 3117 3118 3119 3120 3120 3123 3123 3125 3126 3127 3127 3129 3130 3131 3132 3133 3134 3134 3136 3137 3138 3140 3141 3142 3144 3145 3146 3147 3147 3148 3150 3151 3152 3153 3153 3153 3153 3153 3154
3111 3112 3112 3114 3111 3111 3111 3112 3113 3114 3116 3116 3118 3119 3118 3120 3121 3122 3123 3124 3125 3126 3127 3128 3129 3130 3131 3132 3133 3134 3135 3137 3138 3139 3141 3142 3143 3144 3145 3146 3147 3149 3150 3151 3152 3152 3152 3152 3152
3110 3111 3110 3112 3112 3112 3111 3111 3113 3114 3113 3116 3117 3117 3115 3118 3119 3120 3120 3121 3121 3122 3123 3124 3125 3126 3127 3128 3129 3130 3132 3134 3135 3136 3137 3139 3141 3142 3143 3144 3145 3146 3147 3148 3149 3150 3150 3150 3151
3110 3111 3111 3110 3111 3110 3110 3111 3111 3113 3113 3114 3115 3116 3116 3116 3116 3117 3117 3118 3118 3118 3119 3120 3120 3121 3123 3124 3124 3126 3127 3129 3131 3133 3134 3135 3137 3139 3140 3141 3142 3143 3144 3145 3146 3147 3147 3148 3149
3110 3109 3109 3108 3109 3108 3109 3110 3110 3112 3111 3111 3113 3114 3114 3115 3115 3115 3115 3115 3115 3115 3115 3116 3117 3118 3119 3120 3121 3122 3123 3124 3126 3128 3130 3131 3133 3134 3136 3138 3138 3140 3140 3141 3143 3144 3145 3145 3146
3108 3108 3107 3107 3107 3108 3108 3109 3109 3110 3110 3111 3111 3111 3112 3112 3112 3112 3112 3112 3112 3112 3112 3112 3113 3114 3114 3115 3116 3118 3118 3119 3120 3123 3124 3126 3128 3129 3131 3133 3134 3135 3136 3137 3139 3140 3141 3141 3142
3107 3106 3106 3106 3106 3107 3107 3108 3108 3109 3109 3109 3110 3110 3110 3109 3109 3108 3108 3108 3108 3108 3109 3109 3109 3109 3110 3110 3111 3112 3113 3114 3115 3117 3118 3120 3123 3124 3126 3127 3129 3130 3132 3132 3134 3136 3137 3138 3139
3105 3106 3106 3106 3106 3107 3106 3106 3107 3107 3107 3108 3108 3108 3108 3107 3107 3107 3106 3106 3106 3107 3106 3106 3106 3106 3106 3106 3107 3107 3107 3108 3109 3110 3111 3113 3115 3118 3121 3122 3123 3124 3126 3126 3128 3130 3133 3135 3135
3105 3105 3105 3105 3106 3106 3105 3105 3106 3106 3106 3106 3106 3106 3106 3105 3105 3104 3104 3104 3104 3104 3104 3103 3103 3103 3103 3103 3103 3103 3103 3103 3104 3105 3106 3107 3107 3111 3113 3116 3117 3119 3120 3117 3119 3122 3126 3129 3131
3103 3104 3104 3104 3105 3105 3104 3104 3103 3104 3105 3104 3104 3103 3103 3104 3103 3103 3103 3102 3102 3102 3102 3102 3101 3101 3100 3100 3099 3100 3099 3099 3099 3099 3099 3100 3099 3103 3107 3108 3109 3111 3113 3115 3111 3110 3118 3123 3122
3101 3102 3102 3102 3102 3104 3103 3102 3102 3102 3102 3102 3101 3101 3101 3101 3100 3100 3100 3100 3100 3100 3100 3099 3099 3098 3097 3097 3096 3096 3095 3095 3094 3094 3094 3093 3093 3094 3097 3099 3101 3103 3105 3109 3098 3108 3111 3113 3115
3099 3099 3100 3101 3100 3101 3102 3100 3099 3100 3099 3099 3098 3098 3098 3098 3098 3098 3097 3097 3097 3097 3096 3096 3095 3094 3093 3092 3091 3091 3090 3089 3089 3089 3088 3088 3087 3087 3089 3090 3091 3094 3096 3099 3102 3106 3108 3108 3107
3096 3096 3098 3099 3098 3098 3098 3097 3098 3097 3095 3095 3095 3093 3094 3095 3095 3095 3095 3095 3094 3093 3092 3091 3090 3089 3087 3086 3085 3083 3082 3082 3082 3081 3081 3081 3081 3079 3081 3082 3084 3084 3086 3089 3093 3096 3099 3103 3099
3095 3095 3096 3095 3096 3096 3094 3093 3094 3093 3092 3092 3092 3091 3091 3093 3093 3093 3093 3092 3090 3089 3088 3087 3085 3084 3081 3078 3076 3075 3074 3072 3072 3073 3074 3073 3072 3072 3072 3074 3075 3076 3078 3080 3083 3085 3090 3091 3091
3091 3092 3093 3092 3093 3093 3091 3089 3089 3088 3088 3089 3090 3090 3089 3089 3090 3090 3089 3088 3087 3086 3084 3082 3080 3077 3074 3071 3067 3064 3063 3063 3063 3063 3061 3063 3064 3062 3063 3065 3067 3068 3070 3072 3074 3077 3080 3081 3087
3088 3088 3090 3090 3090 3089 3088 3086 3084 3085 3086 3087 3088 3087 3088 3087 3086 3085 3084 3083 3083 3081 3077 3075 3073 3070 3067 3062 3056 3053 3051 3051 3051 3053 3052 3050 3052 3054 3052 3054 3058 3060 3062 3064 3066 3069 3071 3073 3077
3085 3085 3086 3086 3087 3087 3087 3086 3082 3082 3083 3084 3085 3084 3082 3083 3083 3083 3082 3081 3079 3075 3072 3068 3064 3061 3057 3052 3046 3042 3039 3039 3041 3040 3040 3040 3040 3043 3044 3044 3046 3051 3053 3055 3058 3061 3063 3066 3069
3081 3081 3083 3083 3084 3084 3084 3085 3079 3078 3079 3080 3081 3080 3080 3079 3080 3079 3078 3076 3073 3069 3065 3061 3056 3052 3048 3043 3039 3034 3031 3030 3029 3030 3030 3030 3030 3030 3032 3034 3036 3040 3045 3047 3050 3053 3057 3059 3065
3076 3079 3080 3080 3081 3081 3078 3080 3077 3076 3076 3076 3078 3077 3075 3076 3076 3075 3072 3069 3065 3062 3058 3053 3048 3044 3039 3034 3031 3026 3023 3023 3022 3022 3021 3021 3020 3020 3022 3024 3026 3030 3035 3040 3042 3045 3048 3051 3057
3073 3076 3078 3082 3081 3079 3076 3078 3075 3076 3075 3074 3073 3073 3073 3072 3072 3070 3066 3062 3058 3053 3049 3044 3038 3034 3029 3025 3021 3018 3015 3014 3013 3013 3012 3012 3011 3011 3013 3016 3018 3021 3026 3032 3036 3038 3040 3043 3048
3068 3072 3071 3079 3076 3074 3075 3072 3071 3071 3072 3072 3070 3069 3069 3068 3067 3064 3059 3055 3050 3046 3041 3036 3029 3023 3018 3013 3010 3008 3008 3007 3005 3003 3003 3002 3002 3002 3003 3007 3009 3013 3018 3024 3028 3030 3033 3036 3041
3065 3067 3070 3069 3069 3070 3068 3069 3069 3069 3068 3068 3065 3065 3065 3063 3061 3057 3053 3049 3044 3038 3032 3026 3018 3012 3006 3003 3002 3001 3000 2998 2997 2996 2994 2993 2992 2993 2994 2997 3001 3004 3010 3016 3020 3024 3026 3029 3036
3062 3065 3068 3067 3070 3070 3061 3061 3060 3062 3064 3064 3063 3063 3061 3059 3056 3052 3048 3042 3037 3030 3023 3017 3010 3004 2998 2996 2995 2994 2993 2992 2990 2988 2985 2984 2983 2982 2983 2987 2992 2996 3003 3009 3013 3017 3022 3027 3031
3061 3062 3064 3064 3064 3066 3066 3060 3059 3060 3061 3061 3060 3058 3057 3054 3050 3046 3041 3036 3030 3023 3017 3009 3002 2997 2993 2991 2989 2987 2986 2983 2980 2977 2974 2974 2972 2972 2973 2979 2984 2989 2996 3004 3009 3012 3017 3022 3027
3057 3059 3060 3061 3062 3062 3062 3060 3059 3058 3061 3058 3057 3053 3052 3049 3044 3041 3035 3029 3023 3016 3009 3001 2996 2992 2988 2984 2981 2980 2977 2973 2970 2967 2966 2965 2962 2964 2967 2971 2976 2982 2991 2999 3005 3009 3014 3019 3024